Women Rock - Trail Run presented by Navworld - 7 km - Provisional Results

All time keeping disputes must be logged within 48 hours after the event to info@bouttime.co.za. This include on-route distance changes, starting in the wrong batch, number swops between friends/family etc

Thank you for participating in this event & well done on your result!!!

Please rate the event and feel free to add a few comments if you wish.


  Use the Ctrl+F keys on your keyboard to search for a first or last name

Race NoNameSurnameGenderBatchTimeOverallGenderAge CatAge PosPaceNTS Index
588Xandervan der merweMaleNOT SET00:36:05.71114 - 19105:09/km9.00
453JohannGrobbelaarMaleNOT SET00:43:07.22240 - 49106:09/km9.26
581liamPrinslooMaleNOT SET00:47:16.03314 - 19206:45/km9.52
1267Megan CesanoFemaleNOT SET00:47:23.641< 13106:45/km9.78
370LynetteUrenFemaleNOT SET00:47:48.95250 - 59106:48/km10.04
1050ElnaMalanFemaleNOT SET00:48:10.563Open106:51/km10.30
1262JacoPotgieterMaleNOT SET00:49:48.674Open107:06/km10.56
1037MarishaFerreiraFemaleNOT SET00:50:04.984Open207:09/km10.82
499CarlaPrinslooFemaleNOT SET00:50:11.095< 13207:09/km11.08
1302EtienneChanguionMaleNOT SET00:50:27.010540 - 49207:12/km11.33
704CarmenPopeFemaleNOT SET00:50:29.1116Open307:12/km11.59
867Dirk CornelisOdendaalMaleNOT SET00:51:18.812640 - 49307:18/km11.85
331DewanLombardMaleNOT SET00:51:20.3137Open207:19/km12.11
457LiezelHARPERFemaleNOT SET00:51:24.9147Open407:19/km12.37
420LouisVan EckMaleNOT SET00:51:46.6158Open307:22/km12.63
316GerritOlivierMaleNOT SET00:52:39.116914 - 19307:30/km12.89
673CharlotteMüllerFemaleNOT SET00:52:59.4178Open507:33/km13.15
690CraigHillMaleNOT SET00:53:09.51810Open407:34/km13.41
455HeloiseWeitszFemaleNOT SET00:53:36.9199Open607:39/km13.67
343LindieVisserFemaleNOT SET00:53:37.22010Open707:39/km13.93
495ChristienWiidFemaleNOT SET00:54:02.3211140 - 49107:42/km14.19
703Frankovan der merweMaleNOT SET00:54:14.6221114 - 19407:43/km14.45
1495CharleneHamlynFemaleNOT SET00:54:30.42312Open807:46/km14.71
521SabeNoethFemaleNOT SET00:54:36.42413Open907:48/km14.97
357Julianvan GreunenMaleNOT SET00:54:38.0251240 - 49407:48/km15.23
663MarlienVan EedenFemaleNOT SET00:54:41.92614Open1007:48/km15.49
1351AmeliaClaassensFemaleNOT SET00:54:45.4271550 - 59207:48/km15.74
792AnelHartzenbergFemaleNOT SET00:54:45.92816Open1107:48/km16.00
513HeidyHarrisFemaleNOT SET00:54:53.0291750 - 59307:49/km16.26
1363LouisClaassensMaleNOT SET00:55:21.2301360 - 69107:54/km16.52
702JenniferCullenFemaleNOT SET00:55:37.93118Open1207:55/km16.78
426Callan SchroederFemaleNOT SET00:55:40.43219Open1307:57/km17.04
449Claire JeanBain VennFemaleNOT SET00:55:44.0332040 - 49207:57/km17.30
321LianaVan der WesthuizenFemaleNOT SET00:55:49.83421Open1407:57/km17.56
575HelinkaHagerFemaleNOT SET00:56:08.43522Open1508:00/km17.82
737DanielaSaulsFemaleNOT SET00:56:08.73623Open1608:00/km18.08
483ErikaDavisFemaleNOT SET00:56:19.23724Open1708:01/km18.34
311Genna-LeeUrenFemaleNOT SET00:56:21.43825Open1808:03/km18.60
604SurjanaShieldsFemaleNOT SET00:56:39.33926Open1908:04/km18.86
415DawnFlierFemaleNOT SET00:57:03.7402750 - 59408:09/km19.12
872LaraWatkinsFemaleNOT SET00:57:34.14128Open2008:12/km19.38
477MargoBeukesFemaleNOT SET00:57:59.14229Open2108:16/km19.64
367Bernicevan der MerweFemaleNOT SET00:58:09.2433040 - 49308:18/km19.90
596JanineSiebritsFemaleNOT SET00:58:37.44431Open2208:21/km20.15
878MarliseWelgensFemaleNOT SET00:58:49.9453240 - 49408:24/km20.41
460MarliLombardFemaleNOT SET01:00:28.84633Open2308:37/km20.67
305LyndelClaassenFemaleNOT SET01:00:30.04734Open2408:37/km20.93
675CarmenMeyerFemaleNOT SET01:00:33.84835Open2508:39/km21.19
748JacquiElsFemaleNOT SET01:00:36.94936Open2608:39/km21.45
1058GabbyCesanoFemaleNOT SET01:00:40.45037< 13308:39/km21.71
451Rache NelNelFemaleNOT SET01:00:41.75138Open2708:39/km21.97
965CadenceCesanoFemaleNOT SET01:00:55.75239< 13408:42/km22.23
539MariaVan der MerweFemaleNOT SET01:01:21.35340Open2808:45/km22.49
733JoanetteCameronFemaleNOT SET01:01:30.8544114 - 19108:46/km22.75
633FathimaAbdulFemaleNOT SET01:01:44.05542Open2908:48/km23.01
1029DanieBesterMaleNOT SET01:02:01.55614Open508:51/km23.27
574TanyaHillFemaleNOT SET01:02:05.55743Open3008:51/km23.53
427Mariannade SmidtFemaleNOT SET01:02:47.35844Open3108:57/km23.79
666NadetteVoogdFemaleNOT SET01:02:52.85945Open3208:57/km24.05
685Jan HendrikGroenewaldMaleNOT SET01:02:59.06015Open608:58/km24.31
411MarietteKrogFemaleNOT SET01:03:25.2614650 - 59509:03/km24.56
679CelesteGebhardFemaleNOT SET01:03:27.26247Open3309:03/km24.82
695Juan-ReGrundlinghMaleNOT SET01:03:30.46316Open709:03/km25.08
782Rourkede LangeMaleNOT SET01:03:42.26417< 13109:06/km25.34
712LeneBadenhorstFemaleNOT SET01:04:07.46548< 13509:09/km25.60
1301Amy PeltzerFemaleNOT SET01:04:10.26649< 13609:09/km25.86
594ToniDos SantosMaleNOT SET01:05:43.3671860 - 69209:22/km26.12
736SamanthaSchoemanFemaleNOT SET01:05:44.66850Open3409:22/km26.38
626Esnade SmidtFemaleNOT SET01:05:47.5695140 - 49509:22/km26.64
613RebeccaSchlebuschFemaleNOT SET01:05:56.07052Open3509:24/km26.90
414Marthie BoshoffFemaleNOT SET01:06:29.87153Open3609:28/km27.16
1355JoneldaSemmelinkFemaleNOT SET01:06:35.37254Open3709:30/km27.42
978CamilleTricoireFemaleNOT SET01:06:52.27355Open3809:33/km27.68
770SanitaWiidFemaleNOT SET01:07:04.57456Open3909:33/km27.94
1059MoniqueHaywordFemaleNOT SET01:07:14.3755740 - 49609:36/km28.20
1053Alida van EckFemaleNOT SET01:07:33.17658Open4009:39/km28.46
864JacoSwanepoelMaleNOT SET01:07:34.67719Open809:39/km28.72
691ChristaEnslinFemaleNOT SET01:07:37.8785940 - 49709:39/km28.97
572JacoBadenhorstMaleNOT SET01:08:00.17920< 13209:42/km29.23
627MelissaMooreFemaleNOT SET01:08:18.88060Open4109:45/km29.49
471GillianKlompFemaleNOT SET01:08:21.18161Open4209:45/km29.75
984Désirée de Villiers FemaleNOT SET01:09:10.88262Open4309:51/km30.01
757TanyaWestFemaleNOT SET01:09:22.98363Open4409:54/km30.27
1348LezandraGrundlinghFemaleNOT SET01:10:19.68464Open4510:01/km30.53
629SiziweNgewabeFemaleNOT SET01:10:34.9856540 - 49810:03/km30.79
1060CarloCesanoMaleNOT SET01:11:03.6862140 - 49510:09/km31.05
386Erica BronkhorstFemaleNOT SET01:11:50.0876640 - 49910:15/km31.31
302Anneri le RouxFemaleNOT SET01:11:57.98867Open4610:15/km31.57
612AnikaScholtzFemaleNOT SET01:12:03.38968Open4710:16/km31.83
568LizellePotgieterFemaleNOT SET01:12:16.39069Open4810:18/km32.09
622GwenPotgieterFemaleNOT SET01:12:17.6917050 - 59610:18/km32.35
376NadineBoshoffFemaleNOT SET01:12:21.09271Open4910:19/km32.61
387DirkOlivierMaleNOT SET01:13:29.6932250 - 59110:28/km32.87
799DeidrePrinslooFemaleNOT SET01:14:16.2947240 - 491010:36/km33.13
1015Tanya FourieFemaleNOT SET01:14:16.49573Open5010:36/km33.38
795Ronel ROBINSONFemaleNOT SET01:14:19.1967440 - 491110:36/km33.64
1344ADRIDIRKERFemaleNOT SET01:14:20.59775Open5110:36/km33.90
1265CarolSadieFemaleNOT SET01:14:49.3987650 - 59710:40/km34.16
714LizellePauwFemaleNOT SET01:14:58.9997740 - 491210:42/km34.42
571StefenieMarxFemaleNOT SET01:15:13.610078Open5210:43/km34.68
822Janet VivienneMeyerFemaleNOT SET01:16:28.61017950 - 59810:54/km34.94
1347LorienWiidFemaleNOT SET01:16:35.510280Open5310:55/km35.20
1246JacorienGoussFemaleNOT SET01:16:36.210381Open5410:55/km35.46
755Yvettede LangeFemaleNOT SET01:16:48.41048240 - 491310:57/km35.72
583ReneePeltzerFemaleNOT SET01:17:02.61058340 - 491411:00/km35.98
649TaniaElsFemaleNOT SET01:17:04.61068440 - 491511:00/km36.24
470JudyVan NiekerkFemaleNOT SET01:17:12.91078540 - 491611:00/km36.50
1387ElizabethArcherFemaleNOT SET01:17:14.910886Open5511:01/km36.76
582LizaBothaFemaleNOT SET01:17:15.01098740 - 491711:01/km37.02
749CatherineGovenderFemaleNOT SET01:17:19.511088Open5611:01/km37.28
1034AntoinetteCantFemaleNOT SET01:17:26.811189Open5711:03/km37.54
729CharlottaSteynFemaleNOT SET01:18:40.21129050 - 59911:13/km37.79
418JacquesSteynMaleNOT SET01:18:40.41132360 - 69311:13/km38.05
417TanyaOelofseFemaleNOT SET01:18:54.311491Open5811:15/km38.31
479FransDe VosMaleNOT SET01:19:13.411524Open911:18/km38.57
683Yolande VisagieFemaleNOT SET01:19:17.711692Open5911:18/km38.83
786NtombiMgidiFemaleNOT SET01:19:36.711793Open6011:21/km39.09
756maritzaprozeskyFemaleNOT SET01:19:58.111894Open6111:24/km39.35
464NATALIEMINNAARFemaleNOT SET01:20:35.81199550 - 591011:30/km39.61
652ELIZABETHMCLEODFemaleNOT SET01:20:55.51209650 - 591111:33/km39.87
1346WandaCopnradieFemaleNOT SET01:21:14.11219750 - 591211:36/km40.13
678RonelScribanteFemaleNOT SET01:21:16.51229860 - 69111:36/km40.39
438MadeleineHoffmannFemaleNOT SET01:21:49.21239940 - 491811:40/km40.65
379MariaHoffmannFemaleNOT SET01:21:51.312410014 - 19211:40/km40.91
447Elizabethde LangeFemaleNOT SET01:22:10.512510140 - 491911:43/km41.17
734BulelwaMadekurozwaFemaleNOT SET01:23:57.012610240 - 492011:58/km41.43
732Mary CatherineMadekurozwaFemaleNOT SET01:23:59.612710340 - 492111:58/km41.69
1375TereenaO'ConnorFemaleNOT SET01:24:06.8128104Open6212:00/km41.95
1255MarkBeranMaleNOT SET01:24:09.112925Open1012:00/km42.21
590DiahannStalbaumFemaleNOT SET01:25:12.6130105Open6312:09/km42.46
556CharlDiedericksMaleNOT SET01:25:16.21312640 - 49612:09/km42.72
488karenkellermanFemaleNOT SET01:25:30.313210650 - 591312:12/km42.98
498Anje KellermanFemaleNOT SET01:25:31.9133107Open6412:12/km43.24
751CeliaNagelFemaleNOT SET01:26:09.9134108Open6512:18/km43.50
677Nicoledu PlessisFemaleNOT SET01:26:11.8135109Open6612:18/km43.76
1259MithaCilliersFemaleNOT SET01:27:18.6136110Open6712:27/km44.02
1303HopeLangeFemaleNOT SET01:27:24.113711140 - 492212:28/km44.28
1497lizaBadenhorstFemaleNOT SET01:28:45.713811240 - 492312:39/km44.54
619Adolph Krige MaleNOT SET01:29:34.613927Open1112:46/km44.80
797ChrisneEnslinFemaleNOT SET01:29:42.2140113< 13712:48/km45.06
567HendreEnslinMaleNOT SET01:29:43.514128< 13312:48/km45.32
686GayleSmithFemaleNOT SET01:30:21.6142114Open6812:54/km45.58
328LynetteMareFemaleNOT SET01:30:25.214311550 - 591412:54/km45.84
768chantalwoodingFemaleNOT SET01:31:02.3144116Open6913:00/km46.10
1256MarianaValentinFemaleNOT SET01:31:16.814511740 - 492413:01/km46.36
742MARLENEKRUGELFemaleNOT SET01:31:22.314611840 - 492513:03/km46.62
1252DevakshaMaharajFemaleNOT SET01:31:46.9147119Open7013:06/km46.87
419Margotvan SchoorFemaleNOT SET01:32:00.814812060 - 69213:07/km47.13
743JessicaFaberFemaleNOT SET01:32:26.0149121Open7113:12/km47.39
759KathrynCunnarFemaleNOT SET01:32:28.1150122Open7213:12/km47.65
655MELINDAMCLEODFemaleNOT SET01:32:32.9151123Open7313:12/km47.91
662KYLEMCHUGHMaleNOT SET01:32:37.215229Open1213:12/km48.17
752KarinGroblerFemaleNOT SET01:33:36.3153124Open7413:21/km48.43
1361Deon GroblerMaleNOT SET01:33:39.315430Open1313:21/km48.69
818KobusVisserMaleNOT SET01:34:16.31553160 - 69413:27/km48.95
352ChristiaanPutterMaleNOT SET01:35:10.215632Open1413:34/km49.21
706CheneBrinkFemaleNOT SET01:35:13.1157125Open7513:36/km49.47
656SunetSnymanFemaleNOT SET01:35:57.0158126Open7613:42/km49.73
1373SusanSnymanFemaleNOT SET01:36:02.315912760 - 69313:42/km49.99
661NellieBadenhorstFemaleNOT SET01:36:11.8160128Open7713:43/km50.25
527AllisonBragattoFemaleNOT SET01:37:51.5161129Open7813:57/km50.51
341MichelleFortuinFemaleNOT SET01:37:55.1162130Open7913:58/km50.77
625Ella H van Zyl FerreiraFemaleNOT SET01:38:36.116313140 - 492614:04/km51.03
796Erika FerreiraFemaleNOT SET01:39:35.3164132Open8014:12/km51.28
671ChristianoFerreira MaleNOT SET01:39:37.216533< 13414:12/km51.54
682AdolfprinslooMaleNOT SET01:39:50.216634Open1514:15/km51.80
798xander schoemanMaleNOT SET01:39:50.41673540 - 49714:15/km52.06
791WesselVan WykMaleNOT SET01:39:51.416836Open1614:15/km52.32
1494Ria VisserFemaleNOT SET01:41:25.116913350 - 591514:28/km52.58
308Rihanda CesanoFemaleNOT SET01:41:29.4170134Open8114:28/km52.84
484PhillisMasiavhula FemaleNOT SET01:41:41.217113540 - 492714:30/km53.10
398AleksandrSikMaleNOT SET01:41:49.41723740 - 49814:31/km53.36
720MariciaFronemanFemaleNOT SET01:41:52.517313640 - 492814:33/km53.62
359Vanessade VilliersFemaleNOT SET01:42:05.417413750 - 591614:34/km53.88
772ZawadiMarizaniFemaleNOT SET01:43:23.017513840 - 492914:45/km54.14
698KirstenStegmannFemaleNOT SET01:44:09.4176139Open8214:51/km54.40
587Tanya MattstadtKrugerFemaleNOT SET01:45:16.4177140Open8315:01/km54.66
859Melisa BarnardFemaleNOT SET01:45:18.9178141Open8415:01/km54.92
672natashavan wykFemaleNOT SET01:45:40.6179142Open8515:04/km55.18
700marleprinslooFemaleNOT SET01:45:45.0180143Open8615:06/km55.44
1247LeonikaSmalmanFemaleNOT SET01:45:47.5181144Open8715:06/km55.69
710Gilbert PeretMaleNOT SET01:45:51.718238Open1715:06/km55.95
593MarisaViljoenFemaleNOT SET01:46:29.2183145Open8815:12/km56.21
559Marlys StoreFemaleNOT SET01:46:33.618414660 - 69415:12/km56.47
548KathyBeckerFemaleNOT SET01:49:06.718514750 - 591715:34/km56.73
317Marcia ManningFemaleNOT SET01:52:19.818614840 - 493016:01/km56.99
771RelebogileRamalepaFemaleNOT SET01:56:01.4187149Open8916:33/km57.25
658TsholofeloRamafokoFemaleNOT SET01:56:05.6188150Open9016:34/km57.51
347AdeleBirdFemaleNOT SET01:58:45.918915140 - 493116:57/km57.77
408Chantal BarkhuizenFemaleNOT SET01:58:57.519015250 - 591816:58/km58.03
1250AnnetteBoshoffFemaleNOT SET02:12:28.419115350 - 591918:54/km58.29